Weather History for Fort Myers Airport, FL

Change the Weather History Date:

Saturday, February 23, 2013

  Actual Average Record
Temperature  
Mean Temperature 76 °F -  
Max Temperature 84 °F 76 °F 89 °F (1962)
Min Temperature 68 °F 56 °F 32 °F (1978)
Cooling Degree Days 11    
Growing Degree Days 26 (Base 50)    
Moisture  
Dew Point 68 °F    
Average Humidity 84    
Maximum Humidity 96    
Minimum Humidity 57    
Precipitation  
Precipitation 0.00 in - - ()
Sea Level Pressure  
Sea Level Pressure 29.98 in    
Wind  
Wind Speed 7 mph (South)    
Max Wind Speed 17 mph    
Max Gust Speed 26 mph    
Visibility 7 miles    
Events Fog    
Averages and records for this station are not official NWS values.
T = Trace of Precipitation, MM = Missing Value Source: NWS Daily Summary

Daily Weather History Graph

Daily Weather History Graph

Search for Another Location

Airport:

Trip Planner

Search our weather history database for the weather conditions in past years. The results will help you decide how hot, cold, wet, or windy it might be!

Date:

Astronomy

Feb. 23, 2013 Rise Set
Actual Time 6:56 AM EST 6:24 PM EST
Civil Twilight 6:32 AM EST 6:48 PM EST
Nautical Twilight 6:05 AM EST 7:15 PM EST
Astronomical Twilight 5:38 AM EST 7:42 PM EST
Moon 4:39 PM EST (2/23) 5:10 AM EST (2/23)
Length of Visible Light 12h 15m
Length of Day
11h 28m
Waxing Gibbous, 95% of the Moon is Illuminated
Feb 23
Waxing Gibbous
Feb 25
Full
Mar 4
Last Quarter
Mar 11
New
Mar 19
First Quarter

Hourly Weather History & Observations

Time (EST) Temp. Heat Index Dew Point Humidity Pressure Visibility Wind Dir Wind Speed Gust Speed Precip Events Conditions
12:53 AM 69.1 °F - 66.0 °F 90% 30.02 in 10.0 mi SE 3.5 mph - N/A   Clear
1:53 AM 68.0 °F - 66.0 °F 93% 30.01 in 9.0 mi ESE 3.5 mph - N/A   Clear
2:15 AM 68.0 °F - 66.2 °F 94% 30.01 in 8.0 mi SE 3.5 mph - N/A   Mostly Cloudy
2:28 AM 68.0 °F - 66.2 °F 94% 30.00 in 8.0 mi SE 3.5 mph - N/A   Mostly Cloudy
2:53 AM 69.1 °F - 68.0 °F 96% 29.99 in 8.0 mi SSE 8.1 mph - N/A   Overcast
3:53 AM 69.8 °F - 68.0 °F 94% 29.99 in 10.0 mi South 9.2 mph - N/A   Overcast
4:53 AM 70.0 °F - 68.0 °F 93% 29.98 in 10.0 mi South 6.9 mph - N/A   Overcast
5:53 AM 70.0 °F - 68.0 °F 93% 29.98 in 10.0 mi SSE 4.6 mph - N/A   Overcast
6:41 AM 69.8 °F - 68.0 °F 94% 30.00 in 6.0 mi SSE 6.9 mph - N/A   Overcast
6:53 AM 69.8 °F - 68.0 °F 94% 30.00 in 7.0 mi SSE 5.8 mph - N/A   Overcast
7:32 AM 69.8 °F - 68.0 °F 94% 30.00 in 1.8 mi SSE 9.2 mph - N/A   Overcast
7:44 AM 69.8 °F - 68.0 °F 94% 30.00 in 0.8 mi SSE 8.1 mph - N/A   Overcast
7:53 AM 69.1 °F - 68.0 °F 96% 29.99 in 1.2 mi SSE 6.9 mph - N/A   Overcast
8:03 AM 69.8 °F - 68.0 °F 94% 30.01 in 3.0 mi SSE 6.9 mph - N/A   Overcast
8:27 AM 71.6 °F - 69.8 °F 94% 30.01 in 10.0 mi SSE 9.2 mph - N/A   Overcast
8:53 AM 73.0 °F - 69.1 °F 87% 30.01 in 10.0 mi SSE 9.2 mph - N/A   Partly Cloudy
9:53 AM 78.1 °F - 69.1 °F 74% 30.02 in 10.0 mi South 10.4 mph - N/A   Scattered Clouds
10:14 AM 80.6 °F 83.9 °F 69.8 °F 70% 30.02 in 10.0 mi South 11.5 mph - N/A   Mostly Cloudy
10:25 AM 78.8 °F - 68.0 °F 69% 30.02 in 10.0 mi South 13.8 mph - N/A   Scattered Clouds
10:44 AM 80.6 °F 83.2 °F 68.0 °F 65% 30.01 in 10.0 mi South 15.0 mph 20.7 mph N/A   Mostly Cloudy
10:53 AM 81.0 °F 83.8 °F 68.0 °F 65% 30.01 in 10.0 mi South 13.8 mph - N/A   Mostly Cloudy
11:53 AM 82.9 °F 85.4 °F 66.9 °F 58% 29.99 in 10.0 mi SSW 13.8 mph - N/A   Scattered Clouds
12:53 PM 82.0 °F 84.5 °F 66.9 °F 60% 29.97 in 10.0 mi SW 13.8 mph - N/A   Scattered Clouds
1:53 PM 84.9 °F 88.2 °F 68.0 °F 57% 29.94 in 10.0 mi SW 13.8 mph 26.5 mph N/A   Mostly Cloudy
2:53 PM 82.9 °F 86.5 °F 69.1 °F 63% 29.93 in 10.0 mi SW 16.1 mph - N/A   Mostly Cloudy
3:53 PM 82.0 °F 85.5 °F 69.1 °F 65% 29.93 in 10.0 mi SW 17.3 mph - N/A   Scattered Clouds
4:53 PM 80.1 °F 82.9 °F 69.1 °F 69% 29.92 in 10.0 mi SW 15.0 mph - N/A   Clear
5:53 PM 78.1 °F - 70.0 °F 76% 29.93 in 10.0 mi SSW 16.1 mph - N/A   Clear
6:53 PM 75.0 °F - 70.0 °F 84% 29.94 in 10.0 mi SW 8.1 mph - N/A   Clear
7:53 PM 72.0 °F - 69.1 °F 91% 29.96 in 10.0 mi SW 5.8 mph - N/A   Clear
8:53 PM 72.0 °F - 69.1 °F 91% 29.97 in 8.0 mi WSW 4.6 mph - N/A   Clear
9:53 PM 72.0 °F - 70.0 °F 93% 29.97 in 6.0 mi SSW 4.6 mph - N/A   Clear
10:50 PM 69.8 °F - 68.0 °F 94% 29.98 in 4.0 mi SW 3.5 mph - N/A   Scattered Clouds
10:53 PM 70.0 °F - 68.0 °F 93% 29.98 in 3.0 mi SW 3.5 mph - N/A   Mostly Cloudy
11:24 PM 71.6 °F - 69.8 °F 94% 29.98 in 0.5 mi SSW 5.8 mph - N/A Fog Fog
11:33 PM 71.6 °F - 69.8 °F 94% 29.98 in 0.2 mi SW 8.1 mph - N/A Fog Fog
11:53 PM 71.1 °F - 70.0 °F 96% 29.97 in 0.8 mi SW 8.1 mph - N/A   Mist